Regional Weather Roundup
Issued by NWS Green Bay, WI

Home | Current Version | Previous Version | Text Only | Print | Product List | Glossary On
Versions: 1 2 3 4 5 6 7 8 9 10 11 12 13 14 15 16 17 18 19 20 21 22 23 24 25 26 27 28 29 30 31 32 33 34 35 36 37 38 39 40 41 42 43 44 45 46 47 48 49 50
000
ASUS43 KGRB 020059
RWRGRB

NORTH-CENTRAL AND NORTHEAST WISCONSIN REGIONAL WEATHER ROUNDUP
NATIONAL WEATHER SERVICE GREEN BAY WI
800 PM CDT WED OCT 01 2014

WIZ005-009-010>012-018-019-020200-
NORTH CENTRAL WISCONSIN

CITY           SKY/WX    TMP DP  RH WIND       PRES   REMARKS
IRONWOOD       NOT AVBL
MANITOWISH WTR NOT AVBL
ARBOR VITAE    NOT AVBL
EAGLE RIVER    NOT AVBL
LAND O LAKES   NOT AVBL
RHINELANDER    LGT RAIN  55  52  89 S5        29.89R
PHILLIPS       CLOUDY    54  53  96 S6        29.86R
ANTIGO         NOT AVBL
TOMAHAWK       NOT AVBL
MERRILL        NOT AVBL
$$

WIZ013-073-020200-
NORTHEAST WISCONSIN

CITY           SKY/WX    TMP DP  RH WIND       PRES   REMARKS
IRON MOUNTAIN  CLOUDY    54  49  83 SE7       29.91R
MARINETTE      NOT AVBL
$$

WIZ017-030-035>037-045-020200-
CENTRAL WISCONSIN

CITY           SKY/WX    TMP DP  RH WIND       PRES   REMARKS
MEDFORD        NOT AVBL
WAUSAU         CLOUDY    58  52  80 SE7       29.87R
MOSINEE        NOT AVBL
MARSHFIELD     LGT RAIN  58  54  86 SE6       29.86S
WISC RAPIDS    CLOUDY    60  55  83 E6        29.88S
STEVENS POINT  NOT AVBL
WAUPACA        NOT AVBL
SHAWANO        CLOUDY    57  53  84 SE8       29.92S
CLINTONVILLE   CLOUDY    55  52  88 SE6       29.91R
$$

WIZ038-039-048-051-020200-
FOX VALLEY

CITY           SKY/WX    TMP DP  RH WIND       PRES   REMARKS
NWS GREEN BAY  CLOUDY    56  51  84 SE12      29.94R
APPLETON       CLOUDY    57  50  77 SE16      29.92R
OSHKOSH        CLOUDY    58  52  80 SE10      29.91R
FOND DU LAC    CLOUDY    57  51  80 S10       29.91S
$$

WIZ022-050-052-020200-
EAST CENTRAL WISCONSIN

CITY           SKY/WX    TMP DP  RH WIND       PRES   REMARKS
STURGEON BAY   NOT AVBL
MANITOWOC      NOT AVBL
SHEBOYGAN      CLOUDY    56  52  86 SE5       29.94R
$$

LMZ563-521-522-541>543-020200-
LAKESHORE

STATION/POSITION TIME  TEMP    WIND        PRES    VSBY  WAVE
                       AIR SEA DIR/SP/G                  HT/PER
                 (UTC) (F)     (DEG/KT/KT) (MB)    (MI)  (FT/S)
SHEBOYGAN LKSHOR 0000   56 58  130/ 15/ 16 1013.8S
KEWAUNEE LKSHORE 0000   55     170/ 12/ 15 1013.3R
NORTHPORT PIER   0000   56     150/  8/ 13 1014.2R
N MID LAKE BUOY  0000   56 58  200/  6/  6 1014.7S         1/ 3
CHAMBERS ISLAND  0000   55     130/  3/  8 1013.9S
MENOMINEE LKSHOR 0000   56     180/ 10/ 13 1014.6R
$$


USA.gov is the U.S. government's official web portal to all federal, state and local government web resources and services.